Time,TemperatureF,DewpointF,PressureIn,WindDirection,WindDirectionDegrees,WindSpeedMPH,WindSpeedGustMPH,Humidity,HourlyPrecipIn,Conditions,Clouds,dailyrainin,SolarRadiationWatts/m^2,SoftwareType,DateUTC
2013-10-22 00:42:00,65.0,13.0,-100.00,ENE,64,9.0,13.0,13,0.00,,,0.00,1.000000,,2013-10-22 07:42:00,
2013-10-22 00:52:00,65.0,13.0,-100.00,ENE,64,9.0,13.0,13,0.00,,,0.00,1.000000,,2013-10-22 07:52:00,
2013-10-22 01:22:00,62.0,14.0,-100.00,North,350,3.0,14.0,15,0.00,,,0.00,1.000000,,2013-10-22 08:22:00,
2013-10-22 01:32:00,62.0,14.0,-100.00,North,350,3.0,14.0,15,0.00,,,0.00,1.000000,,2013-10-22 08:32:00,
2013-10-22 01:41:00,62.0,14.0,-100.00,North,350,3.0,14.0,15,0.00,,,0.00,1.000000,,2013-10-22 08:41:00,
2013-10-22 01:52:00,62.0,14.0,-100.00,North,350,3.0,14.0,15,0.00,,,0.00,1.000000,,2013-10-22 08:52:00,
2013-10-22 02:21:00,60.0,14.0,-100.00,North,355,5.0,7.0,16,0.00,,,0.00,1.000000,,2013-10-22 09:21:00,
2013-10-22 02:33:00,60.0,14.0,-100.00,North,355,5.0,7.0,16,0.00,,,0.00,1.000000,,2013-10-22 09:33:00,
2013-10-22 02:43:00,60.0,14.0,-100.00,North,355,5.0,7.0,16,0.00,,,0.00,1.000000,,2013-10-22 09:43:00,
2013-10-22 02:53:00,60.0,14.0,-100.00,North,355,5.0,7.0,16,0.00,,,0.00,1.000000,,2013-10-22 09:53:00,
2013-10-22 03:43:00,60.0,14.0,-100.00,North,1,7.0,12.0,16,0.00,,,0.00,1.000000,,2013-10-22 10:43:00,
2013-10-22 03:53:00,60.0,14.0,-100.00,North,1,7.0,12.0,16,0.00,,,0.00,1.000000,,2013-10-22 10:53:00,
2013-10-22 04:42:00,59.0,14.0,-100.00,North,353,10.0,14.0,17,0.00,,,0.00,1.000000,,2013-10-22 11:42:00,
2013-10-22 04:52:00,59.0,14.0,-100.00,North,353,10.0,14.0,17,0.00,,,0.00,1.000000,,2013-10-22 11:52:00,
2013-10-22 05:42:00,58.0,13.0,-100.00,North,355,9.0,14.0,17,0.00,,,0.00,1.000000,,2013-10-22 12:42:00,
2013-10-22 05:52:00,58.0,13.0,-100.00,North,355,9.0,14.0,17,0.00,,,0.00,1.000000,,2013-10-22 12:52:00,
2013-10-22 06:42:00,58.0,15.0,-100.00,NNW,348,8.0,13.0,18,0.00,,,0.00,1.000000,,2013-10-22 13:42:00,
2013-10-22 06:53:00,58.0,15.0,-100.00,NNW,348,8.0,13.0,18,0.00,,,0.00,1.000000,,2013-10-22 13:53:00,
2013-10-22 07:42:00,57.0,14.0,-100.00,North,350,9.0,14.0,18,0.00,,,0.00,1.000000,,2013-10-22 14:42:00,
2013-10-22 07:52:00,57.0,14.0,-100.00,North,350,9.0,14.0,18,0.00,,,0.00,1.000000,,2013-10-22 14:52:00,
2013-10-22 08:22:00,58.0,15.0,-100.00,North,352,9.0,14.0,18,0.00,,,0.00,34.000000,,2013-10-22 15:22:00,
2013-10-22 08:33:00,58.0,15.0,-100.00,North,352,9.0,14.0,18,0.00,,,0.00,34.000000,,2013-10-22 15:33:00,
2013-10-22 08:43:00,58.0,15.0,-100.00,North,352,9.0,14.0,18,0.00,,,0.00,34.000000,,2013-10-22 15:43:00,
2013-10-22 08:54:00,58.0,15.0,-100.00,North,352,9.0,14.0,18,0.00,,,0.00,34.000000,,2013-10-22 15:54:00,
2013-10-22 09:23:00,59.0,16.0,-100.00,North,354,9.0,14.0,18,0.00,,,0.00,136.000000,,2013-10-22 16:23:00,
2013-10-22 09:33:00,59.0,16.0,-100.00,North,354,9.0,14.0,18,0.00,,,0.00,136.000000,,2013-10-22 16:33:00,
2013-10-22 09:43:00,59.0,16.0,-100.00,North,354,9.0,14.0,18,0.00,,,0.00,136.000000,,2013-10-22 16:43:00,
2013-10-22 09:53:00,59.0,16.0,-100.00,North,354,9.0,14.0,18,0.00,,,0.00,136.000000,,2013-10-22 16:53:00,
2013-10-22 10:22:00,61.0,16.0,-100.00,North,353,9.0,15.0,17,0.00,,,-99.99,339.000000,,2013-10-22 17:22:00,
2013-10-22 10:34:00,61.0,16.0,-100.00,North,353,9.0,15.0,17,0.00,,,-99.99,339.000000,,2013-10-22 17:34:00,
2013-10-22 10:43:00,61.0,16.0,-100.00,North,353,9.0,15.0,17,0.00,,,-99.99,339.000000,,2013-10-22 17:43:00,
2013-10-22 10:52:00,61.0,16.0,-100.00,North,353,9.0,15.0,17,0.00,,,-99.99,339.000000,,2013-10-22 17:52:00,
2013-10-22 11:42:00,65.0,16.0,-100.00,North,355,7.0,16.0,15,0.00,,,0.00,600.000000,,2013-10-22 18:42:00,
2013-10-22 11:52:00,65.0,16.0,-100.00,North,355,7.0,16.0,15,0.00,,,0.00,600.000000,,2013-10-22 18:52:00,
2013-10-22 12:22:00,69.0,16.0,-100.00,North,359,5.0,12.0,13,0.00,,,0.00,836.000000,,2013-10-22 19:22:00,
2013-10-22 12:32:00,69.0,16.0,-100.00,North,359,5.0,12.0,13,0.00,,,0.00,836.000000,,2013-10-22 19:32:00,
2013-10-22 12:42:00,69.0,16.0,-100.00,North,359,5.0,12.0,13,0.00,,,0.00,836.000000,,2013-10-22 19:42:00,
2013-10-22 12:52:00,69.0,16.0,-100.00,North,359,5.0,12.0,13,0.00,,,0.00,836.000000,,2013-10-22 19:52:00,
2013-10-22 13:22:00,72.0,18.0,-100.00,NNE,13,4.0,11.0,13,0.00,,,0.00,831.000000,,2013-10-22 20:22:00,
2013-10-22 13:32:00,72.0,18.0,-100.00,NNE,13,4.0,11.0,13,0.00,,,0.00,831.000000,,2013-10-22 20:32:00,
2013-10-22 13:42:00,72.0,18.0,-100.00,NNE,13,4.0,11.0,13,0.00,,,0.00,831.000000,,2013-10-22 20:42:00,
2013-10-22 13:52:00,72.0,18.0,-100.00,NNE,13,4.0,11.0,13,0.00,,,0.00,831.000000,,2013-10-22 20:52:00,
2013-10-22 14:23:00,74.0,18.0,-100.00,North,6,4.0,11.0,12,0.00,,,0.00,891.000000,,2013-10-22 21:23:00,
2013-10-22 14:34:00,74.0,18.0,-100.00,North,6,4.0,11.0,12,0.00,,,0.00,891.000000,,2013-10-22 21:34:00,
2013-10-22 14:44:00,74.0,18.0,-100.00,North,6,4.0,11.0,12,0.00,,,0.00,891.000000,,2013-10-22 21:44:00,
2013-10-22 14:54:00,74.0,18.0,-100.00,North,6,4.0,11.0,12,0.00,,,0.00,891.000000,,2013-10-22 21:54:00,
2013-10-22 15:43:00,73.0,17.0,-100.00,NNE,14,4.0,10.0,12,0.00,,,0.00,744.000000,,2013-10-22 22:43:00,
2013-10-22 15:54:00,73.0,17.0,-100.00,NNE,14,4.0,10.0,12,0.00,,,0.00,744.000000,,2013-10-22 22:54:00,
2013-10-22 16:43:00,75.0,19.0,-100.00,NNE,28,3.0,12.0,12,0.00,,,0.00,657.000000,,2013-10-22 23:43:00,
2013-10-22 16:53:00,75.0,19.0,-100.00,NNE,28,3.0,12.0,12,0.00,,,0.00,657.000000,,2013-10-22 23:53:00,
2013-10-22 17:22:00,73.0,19.0,-100.00,NNE,31,2.0,12.0,13,0.00,,,0.00,387.000000,,2013-10-23 00:22:00,
2013-10-22 17:32:00,73.0,19.0,-100.00,NNE,31,2.0,12.0,13,0.00,,,0.00,387.000000,,2013-10-23 00:32:00,
2013-10-22 17:42:00,73.0,19.0,-100.00,NNE,31,2.0,12.0,13,0.00,,,0.00,387.000000,,2013-10-23 00:42:00,
2013-10-22 17:52:00,73.0,19.0,-100.00,NNE,31,2.0,12.0,13,0.00,,,0.00,387.000000,,2013-10-23 00:52:00,
2013-10-22 18:42:00,69.0,18.0,-100.00,North,359,0.0,4.0,14,0.00,,,0.00,140.000000,,2013-10-23 01:42:00,
2013-10-22 18:52:00,69.0,18.0,-100.00,North,359,0.0,4.0,14,0.00,,,0.00,140.000000,,2013-10-23 01:52:00,
2013-10-22 19:22:00,64.0,15.0,-100.00,South,191,1.0,6.0,15,0.00,,,0.00,3.000000,,2013-10-23 02:22:00,
2013-10-22 19:32:00,64.0,15.0,-100.00,South,191,1.0,6.0,15,0.00,,,0.00,3.000000,,2013-10-23 02:32:00,
2013-10-22 19:42:00,64.0,15.0,-100.00,South,191,1.0,6.0,15,0.00,,,0.00,3.000000,,2013-10-23 02:42:00,
2013-10-22 19:53:00,64.0,15.0,-100.00,South,191,1.0,6.0,15,0.00,,,0.00,3.000000,,2013-10-23 02:53:00,
2013-10-22 20:44:00,63.0,16.0,-100.00,NNE,33,0.0,4.0,16,0.00,,,0.00,1.000000,,2013-10-23 03:44:00,
2013-10-22 20:55:00,63.0,16.0,-100.00,NNE,33,0.0,4.0,16,0.00,,,0.00,1.000000,,2013-10-23 03:55:00,
2013-10-22 21:45:00,65.0,20.0,-100.00,SE,138,6.0,10.0,18,0.00,,,0.00,1.000000,,2013-10-23 04:45:00,
2013-10-22 21:54:00,65.0,20.0,-100.00,SE,138,6.0,10.0,18,0.00,,,0.00,1.000000,,2013-10-23 04:54:00,
2013-10-22 22:43:00,65.0,18.0,-100.00,East,89,9.0,12.0,16,0.00,,,0.00,1.000000,,2013-10-23 05:43:00,
2013-10-22 22:52:00,65.0,18.0,-100.00,East,89,9.0,12.0,16,0.00,,,0.00,1.000000,,2013-10-23 05:52:00,
2013-10-22 23:42:00,64.0,17.0,-100.00,NE,51,4.0,12.0,16,0.00,,,0.00,1.000000,,2013-10-23 06:42:00,
2013-10-22 23:52:00,64.0,17.0,-100.00,NE,51,4.0,12.0,16,0.00,,,0.00,1.000000,,2013-10-23 06:52:00,